[[{"header":{"parameterUnit":"m.s-1","parameterCategory":1,"la1":30.2991,"la2":30.254,"lo1":-89.0895,"lo2":-89.0444,"dy":0.0017,"dx":0.0017,"nx":28,"ny":28,"refTime":"2024-05-12T03:00:00:Z","depth":0,"parameterNumber":2,"parameterNumberName":"U-component_of_WINDS"},"data":[0,0,0,0,0,0,0,0,0,0,0,0,0,0,0,0,0,0,0,0,0,0,0,0,0,0,0,0,0,0,0,0,0,0,0,0,0,0,0,0,0,0,0,0,0,0,0,0,0,0,0,0,0,0,0,0,0,0,-4.9559,-4.956,0,-4.9616,-4.9617,-4.9617,-4.9447,-4.9441,-4.9436,-4.9431,-4.949,-4.9496,-4.9502,0,0,0,0,0,0,0,0,0,0,0,0,0,-4.9304,-4.9309,-4.9559,-4.956,-4.9561,-4.9616,-4.9617,-4.9617,-4.9448,-4.9441,-4.9435,-4.9429,-4.9488,-4.9495,-4.9503,0,0,0,0,0,0,0,0,0,0,0,0,0,-4.9393,-4.9311,-4.9559,-4.9483,-4.9476,-4.9616,-4.9617,-4.9618,-4.9449,-4.9441,-4.9433,-4.9426,-4.9485,-4.9495,-4.9504,-4.972,0,0,-4.9533,-4.9538,0,0,0,0,0,0,0,0,-4.9388,-4.9403,-4.9493,-4.9488,-4.9481,-4.9516,-4.9548,-4.9652,-4.9451,-4.9459,-4.9431,-4.9422,-4.9505,-4.9512,-4.954,-4.9723,-4.9725,-4.9534,-4.954,-4.9544,-4.9547,0,0,0,0,0,0,0,-4.9382,-4.9399,-4.9582,-4.9495,-4.9488,-4.9445,-4.9449,-4.9567,-4.9525,-4.9458,-4.9446,-4.9455,-4.95,-4.9531,-4.954,-4.9726,-4.9534,-4.9543,-4.9548,-4.9552,-5.0087,-5.0095,0,0,0,0,0,0,-4.9386,-4.9395,-4.958,-4.9583,-4.9415,-4.9456,-4.9461,-4.9513,-4.9524,-4.9518,-4.9461,-4.9447,-4.9519,-4.9529,-4.9542,-4.9793,-4.9544,-4.9553,-4.9559,-5.0079,-5.0089,-5.0098,0,0,0,0,0,0,-4.9381,-4.9404,-4.9577,-4.9486,-4.9505,-4.9469,-4.9529,-4.9518,-4.9549,-4.9526,-4.9518,-4.9501,-4.9513,-4.9528,-4.9676,-4.9793,-4.9558,-4.9566,-5.0069,-5.0082,-5.0093,-5.03,0,0,0,0,0,0,-4.9375,-4.9404,-4.9485,-4.9489,-4.951,-4.9712,-4.9536,-4.9525,-4.9566,-4.9547,-4.9561,-4.9556,-4.9508,-4.9663,-4.9686,-4.9802,-4.9574,-5.0058,-5.0074,-5.0089,-5.0283,-5.0319,-5.0349,0,0,0,0,0,-4.9366,-4.9542,-4.949,-4.9514,-4.9612,-4.9719,-4.9731,-4.9672,-4.9576,-4.9658,-4.9643,-4.9555,-4.9778,-4.968,-4.9704,-4.9825,-5.005,-5.007,-5.0088,-5.0268,-5.0312,-5.0348,0,0,0,0,0,0,-4.9553,-4.9541,-4.9484,-4.9666,-4.9695,-4.969,-4.9791,-4.9721,-4.9778,-4.9758,-4.9683,-4.9687,-4.9849,-4.9852,-4.9743,-5.0034,-4.9897,-4.9922,-5.0026,-5.0067,-5.0099,-5.0094,-4.9582,0,0,0,0,0,-4.9615,-4.9703,-4.9688,-4.985,-4.9868,-4.9828,-4.9872,-4.9825,-4.9851,-4.9863,-4.9859,-4.9888,-4.9964,-5.0016,-5.0085,-5.0283,-5.0283,-5.0379,-5.0412,-5.0439,-5.046,-5.0564,-5.0606,-5.016,-5.016,-5.016,0,0,-4.9745,-4.9749,-4.9809,-4.9888,-4.9904,-4.9997,-4.9839,-4.9944,-5.0011,-4.9879,-5.0017,-5.0016,-5.0044,-5.0218,-5.0295,-5.0226,-5.0584,-5.0463,-5.0485,-5.0492,-5.0588,-5.063,-5.0668,-5.0173,-5.0171,-5.0169,0,0,-5.0027,-5.0041,-5.0176,-5.0196,-5.0223,-5.0195,-5.0229,-5.0235,-5.0229,-5.0367,-5.0269,-5.0349,-5.0482,-5.0505,-5.0535,-5.0827,-5.0748,-5.0852,-5.1024,-5.1126,-5.1161,-5.1191,-5.1294,-5.1332,-5.0874,-5.0875,-5.0875,0,-5.0184,-5.032,-5.0255,-5.0366,-5.0403,-5.0287,-5.0423,-5.0446,-5.0495,-5.0523,-5.0446,-5.0609,-5.062,-5.0797,-5.0869,-5.0897,-5.0931,-5.0849,-5.1161,-5.1191,-5.1219,-5.1316,-5.1355,-5.0887,-5.0886,-5.0884,-5.0883,0,-5.0511,-5.0607,-5.0713,-5.0762,-5.0811,-5.0935,-5.0888,-5.0946,-5.0895,-5.0875,-5.1017,-5.1027,-5.1095,-5.1134,-5.1085,-5.1304,-5.126,-5.1174,-5.1034,-5.1275,-5.1364,-5.1401,-5.0905,-5.09,-5.0896,-5.0893,0,0,-5.0911,-5.0923,-5.0963,-5.0983,-5.1006,-5.1078,-5.1196,-5.1263,-5.1313,-5.1351,-5.1447,-5.1563,-5.1482,-5.1516,-5.1469,-5.1559,-5.1788,-5.146,-5.146,-5.1519,-5.2028,-5.2091,-5.2135,-5.1736,-5.1743,-5.1749,-5.2025,0,-5.1187,-5.1389,-5.1334,-5.1536,-5.1622,-5.1514,-5.1617,-5.1642,-5.1627,-5.1698,-5.1682,-5.1764,-5.1653,-5.1672,-5.1756,-5.1742,-5.1888,-5.1722,-5.1824,-5.1828,-5.1818,-5.2182,-5.225,-5.251,-5.2059,-5.2065,-5.207,0,-5.1536,-5.1588,-5.1798,-5.1804,-5.1839,-5.1932,-5.1988,-5.2058,-5.2084,-5.2066,-5.2105,-5.204,-5.2155,-5.2018,-5.2176,-5.2063,-5.2102,-5.2102,-5.2111,-5.2116,-5.1962,-5.2195,-5.2591,-5.263,-5.2125,-5.212,-5.2116,0,-5.1804,-5.1926,-5.2067,-5.2088,-5.2101,-5.2168,-5.2177,-5.2195,-5.2238,-5.2287,-5.2314,-5.2377,-5.2411,-5.2461,-5.2414,-5.2318,-5.2579,-5.2438,-5.2567,-5.2569,-5.2625,-5.2622,-5.3031,-5.2655,-5.2654,-5.2653,-5.2653,0,-5.2117,-5.225,-5.2187,-5.2274,-5.2419,-5.2355,-5.25,-5.2496,-5.2513,-5.2596,-5.2508,-5.2588,-5.2522,-5.2597,-5.2562,-5.2697,-5.2714,-5.2702,-5.2691,-5.2709,-5.271,-5.2731,-5.2711,-5.2664,-5.2661,-5.2659,-5.2658,0,-5.244,-5.2404,-5.255,-5.255,-5.2553,-5.266,-5.2659,-5.2739,-5.2718,-5.2825,-5.2846,-5.2814,-5.2897,-5.2856,-5.2943,-5.2919,-5.3093,-5.3058,-5.3084,-5.3074,-5.3205,-5.3192,-5.364,-5.3694,-5.3286,-5.329,-5.3294,0,-5.2641,-5.274,-5.2751,-5.28,-5.2814,-5.2896,-5.2939,-5.288,-5.2929,-5.2966,-5.3041,-5.3117,-5.3173,-5.3312,-5.3296,-5.3361,-5.3326,-5.3479,-5.3335,-5.335,-5.3326,-5.3319,-5.3328,-5.3507,-5.3512,-5.3515,-5.3519,0,-5.3001,-5.2978,-5.3044,-5.3105,-5.3159,-5.3204,-5.3241,-5.3286,-5.3228,-5.3288,-5.3372,-5.3416,-5.3504,-5.358,-5.3637,-5.3645,-5.3573,-5.3564,-5.3597,-5.3615,-5.3625,-5.3619,-5.316,-5.3554,-5.355,-5.3547,-5.3546,-5.3544,-5.3267,-5.3349,-5.3369,-5.3446,-5.3467,-5.3504,-5.3579,-5.3568,-5.3636,-5.3703,-5.3665,-5.3763,-5.3785,-5.3854,-5.3872,-5.3948,-5.3887,-5.3935,-5.3947,-5.3959,-5.3976,-5.3616,-5.3958,-5.3957,-5.3956,-5.3955,-5.3955,0,-5.362,-5.3627,-5.3698,-5.3753,-5.3813,-5.374,-5.3778,-5.3832,-5.392,-5.3947,-5.4005,-5.4101,-5.4174,-5.4164,-5.4231,-5.4293,-5.4261,-5.4312,-5.4306,-5.4309,-5.4028,-5.3991,-5.4337,-5.4337,-5.4337,-5.4337,-5.4337,-5.4336,-5.381,-5.3945,-5.3925,-5.407,-5.4076,-5.4171,-5.4199,-5.4232,-5.4253,-5.4364,-5.4424,-5.4418,-5.443,-5.4497,-5.456,-5.4556,-5.4583,-5.4646,-5.4629,-5.4366,-5.4329,-5.4292,-5.4258,-5.4654,-5.4654,-5.4903,-5.4906,-5.4908]},{"header":{"parameterUnit":"m.s-1","parameterCategory":1,"la1":30.2991,"la2":30.254,"lo1":-89.0895,"lo2":-89.0444,"dy":0.0017,"dx":0.0017,"nx":28,"ny":28,"refTime":"2024-05-12T03:00:00:Z","depth":0,"parameterNumber":3,"parameterNumberName":"V-component_of_WINDS"},"data":[0,0,0,0,0,0,0,0,0,0,0,0,0,0,0,0,0,0,0,0,0,0,0,0,0,0,0,0,0,0,0,0,0,0,0,0,0,0,0,0,0,0,0,0,0,0,0,0,0,0,0,0,0,0,0,0,0,0,-1.4961,-1.496,0,-1.4935,-1.4934,-1.4934,-1.4895,-1.4895,-1.4894,-1.4893,-1.4867,-1.4867,-1.4867,0,0,0,0,0,0,0,0,0,0,0,0,0,-1.4976,-1.4976,-1.4961,-1.496,-1.496,-1.4935,-1.4934,-1.4934,-1.4896,-1.4895,-1.4894,-1.4893,-1.4867,-1.4867,-1.4867,0,0,0,0,0,0,0,0,0,0,0,0,0,-1.4961,-1.4976,-1.4961,-1.4938,-1.4935,-1.4935,-1.4934,-1.4934,-1.4896,-1.4895,-1.4894,-1.4893,-1.4867,-1.4867,-1.4867,-1.4887,0,0,-1.4867,-1.4867,0,0,0,0,0,0,0,0,-1.4962,-1.4961,-1.4942,-1.4939,-1.4937,-1.4917,-1.493,-1.4918,-1.4896,-1.4911,-1.4893,-1.4892,-1.4885,-1.4883,-1.4881,-1.4886,-1.4885,-1.4867,-1.4867,-1.4867,-1.4867,0,0,0,0,0,0,0,-1.4963,-1.4962,-1.495,-1.4941,-1.4938,-1.4928,-1.4925,-1.4928,-1.4904,-1.4909,-1.4907,-1.4904,-1.4883,-1.4881,-1.488,-1.4884,-1.4867,-1.4867,-1.4867,-1.4867,-1.4902,-1.4903,0,0,0,0,0,0,-1.4968,-1.4963,-1.4951,-1.495,-1.4947,-1.4929,-1.4925,-1.4925,-1.4904,-1.49,-1.4905,-1.4902,-1.4881,-1.488,-1.4879,-1.4899,-1.4867,-1.4867,-1.4867,-1.4901,-1.4903,-1.4904,0,0,0,0,0,0,-1.4968,-1.4967,-1.4952,-1.4955,-1.4953,-1.493,-1.4929,-1.4925,-1.4922,-1.49,-1.4896,-1.4907,-1.4881,-1.4879,-1.4885,-1.4898,-1.4867,-1.4867,-1.49,-1.4902,-1.4903,-1.4942,0,0,0,0,0,0,-1.4969,-1.4968,-1.4975,-1.4956,-1.4953,-1.4959,-1.493,-1.4925,-1.4922,-1.4918,-1.4901,-1.4897,-1.488,-1.4885,-1.4885,-1.4897,-1.4866,-1.4899,-1.4901,-1.4903,-1.4939,-1.4944,-1.4949,0,0,0,0,0,-1.497,-1.4988,-1.4976,-1.4975,-1.4962,-1.496,-1.4958,-1.4938,-1.4923,-1.493,-1.4916,-1.4898,-1.4896,-1.4886,-1.4885,-1.4898,-1.4898,-1.49,-1.4903,-1.4937,-1.4943,-1.4949,0,0,0,0,0,0,-1.501,-1.4985,-1.4972,-1.4984,-1.4974,-1.4954,-1.4962,-1.4946,-1.494,-1.4937,-1.4912,-1.4908,-1.4917,-1.4908,-1.4897,-1.4915,-1.4894,-1.4896,-1.4921,-1.4927,-1.4931,-1.4933,-1.4866,0,0,0,0,0,-1.502,-1.5021,-1.4999,-1.5012,-1.5008,-1.4986,-1.4984,-1.4969,-1.4958,-1.4954,-1.4941,-1.4931,-1.4928,-1.4927,-1.4923,-1.4937,-1.4932,-1.4946,-1.495,-1.4954,-1.4957,-1.4962,-1.4967,-1.4911,-1.4911,-1.4911,0,0,-1.5042,-1.5028,-1.503,-1.502,-1.5011,-1.5011,-1.4983,-1.4986,-1.4986,-1.4955,-1.4959,-1.4949,-1.4936,-1.4946,-1.4949,-1.4938,-1.4971,-1.4957,-1.4961,-1.4961,-1.4965,-1.497,-1.4975,-1.4913,-1.4912,-1.4912,0,0,-1.5081,-1.5071,-1.508,-1.5071,-1.5057,-1.5042,-1.5044,-1.5026,-1.5017,-1.5021,-1.4998,-1.4997,-1.4993,-1.4985,-1.498,-1.5014,-1.4996,-1.5013,-1.5038,-1.5044,-1.5048,-1.5052,-1.5063,-1.5068,-1.5015,-1.5016,-1.5016,0,-1.5109,-1.511,-1.5087,-1.509,-1.5086,-1.5057,-1.5066,-1.5058,-1.5044,-1.5041,-1.5029,-1.5022,-1.5012,-1.5018,-1.5026,-1.5024,-1.5025,-1.5015,-1.505,-1.5053,-1.5056,-1.5067,-1.5071,-1.5018,-1.5017,-1.5017,-1.5017,0,-1.5145,-1.5145,-1.5154,-1.514,-1.5137,-1.5143,-1.512,-1.5119,-1.5104,-1.509,-1.5094,-1.508,-1.5072,-1.5072,-1.5058,-1.5077,-1.507,-1.5054,-1.5033,-1.5064,-1.5073,-1.5077,-1.5021,-1.502,-1.5019,-1.5019,0,0,-1.521,-1.5182,-1.5186,-1.5178,-1.516,-1.516,-1.5164,-1.5156,-1.5155,-1.5146,-1.5148,-1.5144,-1.5129,-1.5123,-1.5107,-1.5112,-1.5138,-1.5095,-1.5094,-1.5103,-1.5157,-1.5168,-1.5174,-1.5126,-1.5127,-1.5127,-1.5157,0,-1.5245,-1.5251,-1.5229,-1.524,-1.5239,-1.5211,-1.5214,-1.5203,-1.519,-1.5187,-1.5172,-1.517,-1.515,-1.5146,-1.515,-1.5134,-1.5149,-1.5132,-1.5128,-1.5128,-1.5131,-1.5178,-1.5191,-1.522,-1.5161,-1.5161,-1.5162,0,-1.5287,-1.5279,-1.529,-1.5269,-1.5268,-1.5272,-1.5262,-1.526,-1.5246,-1.5236,-1.5228,-1.5209,-1.5211,-1.5191,-1.5192,-1.5181,-1.5178,-1.517,-1.517,-1.5169,-1.5147,-1.5178,-1.5229,-1.5234,-1.5168,-1.5167,-1.5167,0,-1.5333,-1.5325,-1.5329,-1.5324,-1.5301,-1.5303,-1.5294,-1.5279,-1.5275,-1.5266,-1.5263,-1.5254,-1.525,-1.5243,-1.5222,-1.5209,-1.5226,-1.5204,-1.5217,-1.5217,-1.5222,-1.5222,-1.5273,-1.522,-1.522,-1.522,-1.522,0,-1.5374,-1.5381,-1.5349,-1.5352,-1.5359,-1.5334,-1.5341,-1.5329,-1.5316,-1.5315,-1.529,-1.529,-1.5262,-1.5259,-1.5243,-1.5245,-1.5244,-1.5235,-1.5231,-1.5237,-1.5238,-1.5235,-1.5232,-1.5221,-1.5221,-1.5221,-1.522,0,-1.5426,-1.5405,-1.5408,-1.5385,-1.5379,-1.5385,-1.5365,-1.5367,-1.5351,-1.5351,-1.5349,-1.5325,-1.5319,-1.5297,-1.5287,-1.5276,-1.5284,-1.5275,-1.5289,-1.5286,-1.53,-1.5298,-1.535,-1.5355,-1.53,-1.5301,-1.5301,0,-1.5454,-1.5459,-1.5436,-1.5433,-1.5425,-1.5421,-1.5417,-1.5392,-1.5388,-1.5371,-1.5374,-1.5367,-1.5359,-1.5352,-1.5333,-1.5325,-1.5315,-1.5334,-1.5314,-1.532,-1.5315,-1.5314,-1.5314,-1.5338,-1.5339,-1.534,-1.534,0,-1.5505,-1.5494,-1.5488,-1.5478,-1.5473,-1.5464,-1.5454,-1.5453,-1.5425,-1.5422,-1.5416,-1.541,-1.5398,-1.5391,-1.5379,-1.5368,-1.5349,-1.5346,-1.5349,-1.5356,-1.5363,-1.5358,-1.53,-1.5345,-1.5345,-1.5345,-1.5344,-1.5344,-1.5545,-1.5548,-1.5531,-1.5525,-1.5515,-1.5505,-1.5505,-1.5489,-1.5483,-1.5471,-1.5457,-1.5452,-1.5436,-1.5418,-1.5409,-1.5404,-1.5394,-1.5398,-1.5399,-1.54,-1.5403,-1.5363,-1.5402,-1.5402,-1.5402,-1.5402,-1.5402,0,-1.5595,-1.5582,-1.5577,-1.5563,-1.5557,-1.5539,-1.5526,-1.5523,-1.5519,-1.5506,-1.5499,-1.5491,-1.5483,-1.5463,-1.5453,-1.5453,-1.5444,-1.5452,-1.5451,-1.5449,-1.5413,-1.5412,-1.5459,-1.5459,-1.5459,-1.5459,-1.5459,-1.5459,-1.562,-1.5622,-1.5609,-1.5605,-1.5593,-1.5588,-1.5582,-1.5572,-1.5562,-1.5554,-1.5547,-1.5534,-1.5517,-1.5506,-1.5497,-1.5491,-1.5489,-1.5499,-1.549,-1.5457,-1.5452,-1.5446,-1.5445,-1.5498,-1.5498,-1.5526,-1.5526,-1.5526]}]]